Philadelphia, PA - PHL

The City of Brotherly Love

The Philadelphia International Airport is American Airlines' 5th largest hub and serves as another connection gateway to the Northeast, Europe, and some Caribbean destinations. AAG owns more than 70% of the passenger share here making it another key piece to the intricate route network.

PHL Based Pilots: 17   Miles to PHL: 267408
Flights from PHL: 375   Total Hours: 1533.48
Routes using PHL: 846   From PHL: 784.94
Total Miles: 547880   Hours To PHL: 748.54
Miles from PHL: 280472   PHL Charts: Click Here
VATSIM METAR: KPHL 141254Z 24011KT 10SM BKN120 13/03 A2999 RMK AO2 SLP156 T01330033
 
         
View More: Click Here
   

 

Earn Your Wings

Interested in joining our PHL hub? Hover for more!

Your journey starts here. Your journey starts now. A whole new experience is at your fingertips.

Like what you see and ready to join the team?

A rewarding and memorable virtual airline experience awaits!